STARLINK-30247 (57644 NORAD) Tracking and Keplerian Element Data

This shows tracking and keplerian element data for the satellite.

Feedback or suggestion? Click here.




ElementValue
Catalog57644
NameSTARLINK-30247
Epoch Orbit2384
Epoch Day13.12666338
Epoch Year2024
RAAN48.4838
Inclination43.0032
Eccentricity6.13E-05
Argument of Perigee238.1019
Mean Anonmoly121.9764
Mean Motion15.0253331
Decay Rate1.838E-05
L11 57644U 23122N 24013.12666338 .00001838 00000+0 15106-3 0 9996
L22 57644 43.0032 48.4838 0000613 238.1019 121.9764 15.02533310 23849



Live tracking and technical data element details for STARLINK-30247 (NORAD 57644). STARLINK-30247 can be tracked NOW for your location showing map with azimuth and elevation plus other details from your city location.







IsCatalogInMostPopularTable: catalog: 57644, numindb: 29
Update: records affected: 1



GetName: 57644 STARLINK-30247

Hit Count: updated at: Thu, 29 Feb 2024 11:01:43 GMT